Location: Cadeilhan
(42.8161°N, 0.3161°E)
Time: 07:49:21
(UTC+00:00)

Cosmos 292 Rocket - Pass Details

Date: 18 February 2020
Orbit: 674 x 693 km, 74.0° (Epoch: 31 March)

Event Time Altitude Azimuth Distance (km) Brightness Sun altitude
Exits shadow 05:22:43 31° 255° (WSW) 1,191 4.4 -17.1°
Drops below altitude 10° 05:26:41 10° 198° (SSW) 2,101 6.1 -16.4°
Sets 05:29:11 0° 188° (S) 3,011 7.0 -15.9°
